Location: Mococo
(38.0255°N, 122.1161°W)
Time: 00:39:44
(UTC+00:00)

Cosmos 2100 Rocket - Pass Details

Date: 17 May 2026
Orbit: 956 x 999 km, 82.9° (Epoch: 10 June)

Event Time Altitude Azimuth Distance (km) Brightness Sun altitude
Rises 05:05:53 0° 232° (SW) 3,660 7.1 -18.9°
Reaches altitude 10° 05:09:24 10° 252° (WSW) 2,726 6.7 -19.4°
Maximum altitude 05:13:17 17° 291° (WNW) 2,273 6.7 -19.9°
Drops below altitude 10° 05:17:12 10° 330° (NNW) 2,754 7.5 -20.4°
Sets 05:20:48 0° 350° (N) 3,714 8.0 -20.9°
